TimeEDT,TemperatureF,Dew PointF,Humidity,Sea Level PressureIn,VisibilityMPH,Wind Direction,Wind SpeedMPH,Gust SpeedMPH,PrecipitationIn,Events,Conditions,WindDirDegrees,DateUTC
12:53 AM,69.1,57.9,68,30.17,10.0,Calm,Calm,-,N/A,,Clear,0,2013-04-25 04:53:00
1:53 AM,68.0,59.0,73,30.15,10.0,Calm,Calm,-,N/A,,Scattered Clouds,0,2013-04-25 05:53:00
2:53 AM,66.0,61.0,84,30.14,10.0,Calm,Calm,-,N/A,,Partly Cloudy,0,2013-04-25 06:53:00
3:53 AM,64.0,59.0,84,30.14,7.0,Calm,Calm,-,N/A,,Partly Cloudy,0,2013-04-25 07:53:00
4:53 AM,63.0,57.9,84,30.15,4.0,Calm,Calm,-,N/A,,Haze,0,2013-04-25 08:53:00
5:53 AM,63.0,57.9,84,30.16,3.0,Calm,Calm,-,N/A,,Haze,0,2013-04-25 09:53:00
6:53 AM,63.0,60.1,90,30.18,4.0,Calm,Calm,-,N/A,,Clear,0,2013-04-25 10:53:00
7:05 AM,64.4,60.8,88,30.16,2.5,Calm,Calm,-,N/A,,Clear,0,2013-04-25 11:05:00
7:36 AM,64.4,60.8,88,30.17,3.0,Calm,Calm,-,N/A,,Clear,0,2013-04-25 11:36:00
7:53 AM,66.9,63.0,87,30.20,4.0,Calm,Calm,-,N/A,,Clear,0,2013-04-25 11:53:00
8:01 AM,66.2,62.6,88,30.19,4.0,NW,3.5,-,N/A,,Scattered Clouds,310,2013-04-25 12:01:00
8:09 AM,68.0,64.4,88,30.19,4.0,Variable,3.5,-,N/A,,Mostly Cloudy,0,2013-04-25 12:09:00
8:53 AM,69.1,64.0,84,30.23,3.0,Calm,Calm,-,N/A,,Haze,0,2013-04-25 12:53:00
9:45 AM,71.6,64.4,78,30.21,9.0,Variable,3.5,-,N/A,,Overcast,0,2013-04-25 13:45:00
9:53 AM,72.0,64.0,76,30.24,10.0,Calm,Calm,-,N/A,,Mostly Cloudy,0,2013-04-25 13:53:00
10:44 AM,75.2,62.6,65,30.23,10.0,North,5.8,-,N/A,,Scattered Clouds,350,2013-04-25 14:44:00
10:53 AM,75.9,62.1,62,30.25,10.0,North,6.9,-,N/A,,Partly Cloudy,360,2013-04-25 14:53:00
11:53 AM,80.1,62.1,54,30.25,10.0,North,5.8,-,N/A,,Scattered Clouds,360,2013-04-25 15:53:00
12:23 PM,80.6,62.6,54,30.24,10.0,Calm,Calm,-,N/A,,Mostly Cloudy,0,2013-04-25 16:23:00
12:46 PM,82.4,62.6,51,30.23,10.0,Variable,3.5,-,N/A,,Mostly Cloudy,0,2013-04-25 16:46:00
12:53 PM,80.1,62.1,54,30.25,10.0,NNW,4.6,-,N/A,,Mostly Cloudy,330,2013-04-25 16:53:00
1:53 PM,82.0,62.1,51,30.23,10.0,Variable,3.5,-,N/A,,Overcast,0,2013-04-25 17:53:00
2:53 PM,84.0,62.1,47,30.21,10.0,Variable,3.5,-,N/A,,Scattered Clouds,0,2013-04-25 18:53:00
3:53 PM,82.9,62.1,49,30.19,10.0,Variable,3.5,-,N/A,,Overcast,0,2013-04-25 19:53:00
4:53 PM,80.1,62.1,54,30.19,10.0,Calm,Calm,-,N/A,,Overcast,0,2013-04-25 20:53:00
5:53 PM,82.0,61.0,49,30.19,10.0,Calm,Calm,-,N/A,,Mostly Cloudy,0,2013-04-25 21:53:00
6:53 PM,81.0,61.0,50,30.20,10.0,Calm,Calm,-,N/A,,Partly Cloudy,0,2013-04-25 22:53:00
7:53 PM,75.9,63.0,64,30.20,10.0,Calm,Calm,-,N/A,,Clear,0,2013-04-25 23:53:00
8:53 PM,71.1,62.1,73,30.22,10.0,Calm,Calm,-,N/A,,Clear,0,2013-04-26 00:53:00
9:53 PM,66.9,60.1,79,30.24,10.0,Calm,Calm,-,N/A,,Clear,0,2013-04-26 01:53:00
10:53 PM,66.0,60.1,81,30.26,10.0,Calm,Calm,-,N/A,,Clear,0,2013-04-26 02:53:00
11:53 PM,63.0,57.0,81,30.26,10.0,Calm,Calm,-,N/A,,Clear,0,2013-04-26 03:53:00